Location: Colonia Mina de C?rbuni
(46.1667°N, 22.7167°E)
Time: 21:57:39
(UTC+00:00)

Tiros 1 - Pass Details

Date: 19 April 2024
Orbit: 624 x 657 km, 48.4° (Epoch: 20 May)

Event Time Altitude Azimuth Distance (km) Brightness Sun altitude
Rises 01:26:05 0° 270° (W) 2,917 - -20.1°
Reaches altitude 10° 01:28:26 10° 273° (W) 2,005 - -19.8°
Exits shadow 01:30:48 30° 281° (WNW) 1,139 8.1 -19.5°
Maximum altitude 01:33:01 66° 356° (N) 683 7.3 -19.2°
Drops below altitude 10° 01:37:35 10° 79° (E) 1,996 10.6 -18.6°
Sets 01:39:55 0° 82° (E) 2,902 11.5 -18.3°
